Location: Ferchesar
(52.6477°N, 12.4298°E)
Time: 03:06:40
(UTC+01:00)

Tiros 1 - Pass Details

Date: 08 December 2021
Orbit: 629 x 664 km, 48.4° (Epoch: 21 January)

Event Time Altitude Azimuth Distance (km) Brightness Sun altitude
Rises 21:30:55 0° 274° (W) 2,938 - -48.5°
Reaches altitude 10° 21:33:23 10° 266° (W) 2,033 - -48.9°
Maximum altitude 21:37:38 35° 201° (SSW) 1,037 - -49.4°
Drops below altitude 10° 21:41:55 10° 135° (SE) 2,048 - -50.0°
Sets 21:44:24 0° 127° (SE) 2,963 - -50.3°
